C/2010 J2 ( McNaught )

Japanese version
Home page
Updated on September 3, 2011

---------------------------------------------------------------------

* Profile

Discovery Date May 8, 2010
Magnitude 17.5 mag
Discoverer R. H. McNaught (Siding Spring)

* Pictures

* Orbital Elements

Epoch 2010 June 13.0 TT = JDT 2455360.5
T 2010 June 3.85007 TT                                  MPC
q   3.3869733            (2000.0)            P               Q
z  +0.0001043      Peri.    4.61321     +0.62919469     -0.48886093
 +/-0.0000015      Node   311.79557     -0.73652878     -0.62334099
e   0.9996468      Incl.  125.85401     -0.24827283     +0.61029583
From 481 observations 2010 May 8-2011 June 25, mean residual 0".5.

* Finding Charts

* Magnitudes Graph

        m1 = 9.5 + 5 log d + 10.0 log r

---------------------------------------------------------------------

The orbital elements are published on M.P.E.C. 2011-O57.
The charts are made with StellaNavigator Ver.8 (AstroArts).
The magnitudes graphs are made with Comet for Windows.

---------------------------------------------------------------------

Copyright(C) Seiichi Yoshida (comet@aerith.net). All rights reserved.